Location: Asheville, NC
(35.6000°N, 82.5500°W)
Time: 15:19:44
(UTC-04:00)

M-CUBED/EXP-1 PRIME - Pass Details

Date: 09 March 2018
Orbit: 431 x 675 km, 101.7° (Epoch: 24 June)

Event Time Altitude Azimuth Distance (km) Brightness Sun altitude
Rises 05:59:37 0° 42° (NE) 2,836 ? -10.9°
Reaches altitude 10° 06:02:48 10° 69° (ENE) 1,982 ? -10.3°
Maximum altitude 06:04:57 14° 99° (E) 1,786 ? -9.8°
Drops below altitude 10° 06:07:08 10° 129° (SE) 2,035 ? -9.4°
Sets 06:10:28 0° 155° (SSE) 2,976 ? -8.7°
